STARLINK-1566, 46079

Orbit data source: Space-Track

STARLINK-1566, 46079 is a payload satellite owned by SpaceX/Seattle (US) in LEO that was launched on Fri, 07 Aug 2020 UTC via an FALCON 9 launch vehicle from the Air Force Eastern Test Range (AFETR). Payload-class satellites include a variety of spacecraft equipped with specific instruments for various scientific and technological missions. These include communications satellites like Starlink; space stations such as the ISS; scientific satellites like the Hubble; Earth observation satellites from companies like Planet Labs, Umbra, and HawkEye 360; GPS; miniature CubeSats for education and research; and military/defense satellites.

Loading next visibility...
Identifier
46079, 2020-055BE
Orbit
LEO
Country
Flag of USUS
Related business
Manufacturer
SpaceX/Seattle
Mission
Operational Commercial Communications
Bus & Motor
STARLINK, Unknown motor
Mass
260 kg wet, ~248 kg dry
Launch date (UTC)
2020-08-07 (6 years ago)
Launch vehicle
FALCON 9
Launch site
Air Force Eastern Test Range (AFETR)
Object type
Payload
Rocket body
Debris
Shape & HBR
Box + 1 Pan, 10.1 m
Radar Cross Section
13.562 m², Large (>1 m²)

Expand to show TLE details & history
Last TLE update: 11 hours ago

TLE from 11 hours ago
0 STARLINK-1566
1 46079U 20055BE  26125.58903339  .00000626  00000-0  31944-4 0  9993
2 46079  53.1602 196.5863 0001162  79.6720 280.4412 15.31705275317956
Epoch: 2026-05-05T14:08Z
TLE epoch observation values (Epoch: 2026-05-05T14:08:12.484Z)
Latitude
-0.00007°
Longitude
121.07252°
Altitude
471.48 km
Speed
7.632 km/s
True Right ascension
13h 06m 20s
True Declination
0° 00' 00"
Sunlit
Object was in full shadow at epoch
Visualization orbit readout
Latitude
Unknown
Longitude
Unknown
Altitude
Unknown
Speed
Unknown
Apparent Right ascension
Unknown
Apparent Declination
Unknown
Sunlit
N/A
Visualization observer readout
Local Sidereal Time
09:05:00
Azimuth
Unknown
Elevation
Unknown
Doppler factor
Unknown
Orbital elements
Apogee altitude
471.777 km
Perigee altitude
470.185 km
Semi-major axis
6,849.118 km
Eccentricity
0.00012
Inclination
53.1602°
RAAN
196.5863°
Arg. of periapsis
79.672°
True anomaly
280.4281°
Mean anomaly
280.4412°
Eccentric anomaly
280.43465°
Mean motion
3.82905 °/min
Orbital period
94.02 mins
BSTAR
0.000031944
Loading maneuver chart data...
Computing Atmospheric mass density...
Loading historical data...
Loading historical data...
Loading historical data...
Loading historical data...
Loading historical data...
Loading historical data...
Loading historical data...

Documentation

Showing up to 5 results
|